2020-079L (46837 NORAD) Tracking and Keplerian Element Data

This shows tracking and keplerian element data for the satellite.

Feedback or suggestion? Click here.




ElementValue
Catalog46837
Name2020-079L
Epoch Orbit259
Epoch Day328.11505387
Epoch Year2020
RAAN40.0085
Inclination97.2646
Eccentricity0.000663
Argument of Perigee209.3414
Mean Anonmoly239.0693
Mean Motion15.32070479
Decay Rate2.516E-05
L11 46837U 20079L 20328.11505387 .00002516 00000-0 83697-4 0 9992
L22 46837 97.2646 40.0085 0006630 209.3414 239.0693 15.32070479 2595

Live tracking and technical data element details for 2020-079L (NORAD 46837). 2020-079L can be tracked NOW for your location showing map with azimuth and elevation plus other details from your city location.

Track the satellite on the map from your city or location and see movement details for azimuth, elevation, latitude, longitude, range, height, and movement on the map or in text.







IsCatalogInMostPopularTable: catalog: 46837, numindb: 6
Update: records affected: 1



GetName: 46837 2020-079L

Hit Count: updated at: Tue, 24 Nov 2020 12:30:20 GMT